AFR470 LFPG-FIMP

Flight info

Callsign AFR470
Flight time N/A
Altitude 33000
Route OKASI DCT OKEKO DCT MOU DCT MADIV DCT MOKIP DCT TUFTA DCT KOGAS DCT MEDAM DCT NITAM DCT MOGBO DCT TINKU DCT EKMIL DCT LUXIL DCT LATAN DCT SALUN/N0481F350 N705 BOPIX N710 TAKRI P751 LXR M999 JDW G650 RASKA/N0489F360 G650 ASM/N0489F350 UR780 SETIT/N0488F370 DCT XADOX DCT DWA N304 AVUSI UN304 APKAK/N0484F380 UN304 DENLI/N0481F390 UN304 MAEVA UL433 APKOT DCT TIBAG TIBAG2E
Aircraft B77W/H-SDE1E2E3FGHIJ2J3J4J5M1RWXY/LB1D1

Departure

Time 2026-05-05 16:34
Airport Charles de Gaulle International Airport (LFPG)

Arrival

Time N/A
Airport Sir Seewoosagur Ramgoolam International Airport (FIMP)
Time Latitude Longitude Altitude Speed Heading
2026-05-05 15:22 49.00144 2.57924 359 ft 0 kts 358°
2026-05-05 16:13 49.00101 2.57927 362 ft 3 kts 356°
2026-05-05 16:13 49.00085 2.57930 361 ft 4 kts 314°
2026-05-05 16:13 49.00077 2.57955 368 ft 4 kts 276°
2026-05-05 16:14 49.00079 2.58033 364 ft 3 kts 265°
2026-05-05 16:14 49.00079 2.58039 364 ft 0 kts 265°
2026-05-05 16:17 49.00078 2.58028 364 ft 2 kts 264°
2026-05-05 16:17 49.00077 2.58012 362 ft 2 kts 265°
2026-05-05 16:18 49.00073 2.57920 362 ft 11 kts 265°
2026-05-05 16:18 49.00066 2.57806 364 ft 8 kts 261°
2026-05-05 16:18 48.99986 2.57695 368 ft 8 kts 235°
2026-05-05 16:19 48.99975 2.57616 365 ft 8 kts 264°
2026-05-05 16:19 48.99972 2.57537 359 ft 8 kts 266°
2026-05-05 16:19 48.99957 2.57277 361 ft 21 kts 265°
2026-05-05 16:20 48.99936 2.56901 359 ft 17 kts 267°
2026-05-05 16:20 48.99917 2.56552 365 ft 16 kts 266°
2026-05-05 16:21 48.99896 2.56206 359 ft 16 kts 266°
2026-05-05 16:22 48.99951 2.55710 366 ft 14 kts 316°
2026-05-05 16:22 49.00118 2.55615 366 ft 13 kts 344°
2026-05-05 16:23 49.00337 2.55519 366 ft 20 kts 343°
2026-05-05 16:23 49.00470 2.55463 361 ft 20 kts 345°
2026-05-05 16:23 49.00738 2.55345 366 ft 20 kts 344°
2026-05-05 16:24 49.00869 2.55288 364 ft 19 kts 344°
2026-05-05 16:24 49.00998 2.55232 364 ft 19 kts 344°
2026-05-05 16:24 49.01202 2.55166 362 ft 10 kts
2026-05-05 16:25 49.01263 2.55193 364 ft 9 kts 20°
2026-05-05 16:25 49.01383 2.55198 362 ft 8 kts 343°
2026-05-05 16:25 49.01440 2.55179 363 ft 8 kts 351°
2026-05-05 16:26 49.01609 2.55152 363 ft 20 kts 356°
2026-05-05 16:26 49.01846 2.55119 366 ft 14 kts 350°
2026-05-05 16:27 49.01931 2.55062 367 ft 11 kts 308°
2026-05-05 16:27 49.01940 2.54940 364 ft 12 kts 265°
2026-05-05 16:27 49.01933 2.54800 366 ft 14 kts 266°
2026-05-05 16:27 49.01925 2.54634 364 ft 16 kts 266°
2026-05-05 16:28 49.01917 2.54449 367 ft 19 kts 266°
2026-05-05 16:28 49.01907 2.54243 359 ft 20 kts 265°
2026-05-05 16:28 49.01896 2.54028 359 ft 21 kts 265°
2026-05-05 16:28 49.01886 2.53809 365 ft 20 kts 266°
2026-05-05 16:29 49.01868 2.53594 363 ft 20 kts 263°
2026-05-05 16:29 49.01857 2.53383 359 ft 20 kts 265°
2026-05-05 16:29 49.01848 2.53164 359 ft 20 kts 266°
2026-05-05 16:29 49.01837 2.52949 359 ft 20 kts 265°
2026-05-05 16:30 49.01825 2.52734 364 ft 20 kts 265°
2026-05-05 16:30 49.01814 2.52522 365 ft 20 kts 265°
2026-05-05 16:30 49.01819 2.52408 367 ft 9 kts 294°
2026-05-05 16:30 49.01866 2.52343 366 ft 8 kts 315°
2026-05-05 16:31 49.01885 2.52263 367 ft 8 kts 274°
2026-05-05 16:31 49.01900 2.52179 363 ft 8 kts 298°
2026-05-05 16:31 49.01942 2.52121 365 ft 8 kts 335°
2026-05-05 16:31 49.01998 2.52107 360 ft 8 kts 356°
2026-05-05 16:32 49.02056 2.52114 363 ft 8 kts
2026-05-05 16:32 49.02098 2.52152 366 ft 7 kts 52°
2026-05-05 16:32 49.02108 2.52193 363 ft 0 kts 78°
2026-05-05 16:32 49.02114 2.52258 363 ft 27 kts 84°
2026-05-05 16:33 49.02147 2.52873 365 ft 89 kts 85°
2026-05-05 16:33 49.02214 2.54094 365 ft 141 kts 85°
2026-05-05 16:33 49.02317 2.55810 366 ft 182 kts 84°
2026-05-05 16:33 49.02427 2.57783 699 ft 189 kts 82°
2026-05-05 16:34 49.02552 2.59837 1086 ft 199 kts 83°
2026-05-05 16:34 49.02657 2.61982 1588 ft 205 kts 83°
2026-05-05 16:34 49.02767 2.64178 2145 ft 210 kts 84°
2026-05-05 16:34 49.02877 2.66395 2783 ft 211 kts 84°
2026-05-05 16:35 49.02992 2.68670 3265 ft 216 kts 84°
2026-05-05 16:35 49.03109 2.70941 3848 ft 216 kts 84°
2026-05-05 16:35 49.03229 2.73271 4187 ft 230 kts 84°
2026-05-05 16:35 49.03360 2.75804 4401 ft 248 kts 84°
2026-05-05 16:36 49.03497 2.78462 4938 ft 255 kts 84°
2026-05-05 16:36 49.03635 2.81164 5540 ft 258 kts 85°
2026-05-05 16:36 49.03775 2.83916 6150 ft 261 kts 85°
2026-05-05 16:36 49.03917 2.86691 6746 ft 264 kts 85°
2026-05-05 16:37 49.04058 2.89485 7379 ft 267 kts 85°
2026-05-05 16:37 49.04203 2.92340 7984 ft 273 kts 85°
2026-05-05 16:37 49.04276 2.95236 8579 ft 276 kts 96°
2026-05-05 16:37 49.03596 2.97991 9130 ft 285 kts 126°
2026-05-05 16:38 49.02105 2.99977 9824 ft 290 kts 153°
2026-05-05 16:38 49.00147 3.00817 10227 ft 300 kts 175°
2026-05-05 16:38 48.98000 3.00908 10350 ft 319 kts 178°
2026-05-05 16:38 48.95710 3.00960 10515 ft 338 kts 178°
2026-05-05 16:39 48.93295 3.00976 10651 ft 354 kts 184°
2026-05-05 16:39 48.90887 2.99900 10874 ft 370 kts 208°
2026-05-05 16:39 48.88677 2.97846 11329 ft 377 kts 211°
2026-05-05 16:39 48.86571 2.95850 12040 ft 382 kts 211°
2026-05-05 16:40 48.84297 2.93708 12891 ft 386 kts 211°
2026-05-05 16:40 48.82005 2.91555 13736 ft 389 kts 211°
2026-05-05 16:40 48.79693 2.89393 14537 ft 392 kts 211°
2026-05-05 16:40 48.77361 2.87223 15312 ft 394 kts 211°
2026-05-05 16:41 48.75010 2.85043 16103 ft 398 kts 211°
2026-05-05 16:41 48.72637 2.82849 16892 ft 402 kts 211°
2026-05-05 16:41 48.70243 2.80641 17651 ft 406 kts 211°
2026-05-05 16:41 48.67821 2.78408 18411 ft 409 kts 211°
2026-05-05 16:42 48.65376 2.76158 19127 ft 413 kts 211°
2026-05-05 16:42 48.62915 2.73894 19779 ft 416 kts 211°
2026-05-05 16:42 48.60431 2.71613 20395 ft 419 kts 211°
2026-05-05 16:42 48.57928 2.69315 21032 ft 422 kts 211°
2026-05-05 16:43 48.55407 2.67004 21617 ft 425 kts 211°
2026-05-05 16:43 48.52866 2.64678 22194 ft 429 kts 211°
2026-05-05 16:43 48.50285 2.62439 22671 ft 429 kts 204°
2026-05-05 16:43 48.47394 2.61190 23037 ft 437 kts 186°
2026-05-05 16:44 48.44358 2.61253 23508 ft 438 kts 176°
2026-05-05 16:44 48.41305 2.61583 23990 ft 441 kts 177°
2026-05-05 16:44 48.38238 2.61867 24557 ft 443 kts 178°
2026-05-05 16:44 48.35153 2.62110 25113 ft 445 kts 178°
2026-05-05 16:45 48.32055 2.62333 25661 ft 447 kts 178°
2026-05-05 16:45 48.28955 2.62634 26119 ft 449 kts 173°
2026-05-05 16:45 48.25940 2.63907 26442 ft 456 kts 155°
2026-05-05 16:45 48.23142 2.66177 26790 ft 458 kts 152°
2026-05-05 16:46 48.20347 2.68483 27174 ft 460 kts 153°
2026-05-05 16:46 48.17513 2.70741 27632 ft 461 kts 154°
2026-05-05 16:46 48.14659 2.72951 28058 ft 463 kts 155°
2026-05-05 16:46 48.11790 2.75141 28435 ft 465 kts 155°
2026-05-05 16:47 48.09874 2.76600 28676 ft 466 kts 155°
2026-05-05 16:47 48.06967 2.78762 29014 ft 468 kts 157°
2026-05-05 16:47 48.03016 2.81369 29463 ft 469 kts 159°
2026-05-05 16:47 48.00980 2.82636 29737 ft 469 kts 159°
2026-05-05 16:48 47.97001 2.85083 30337 ft 465 kts 160°
2026-05-05 16:48 47.94018 2.86929 30771 ft 463 kts 159°
2026-05-05 16:48 47.92015 2.88178 31020 ft 462 kts 159°
2026-05-05 16:48 47.89060 2.90035 31404 ft 460 kts 159°
2026-05-05 16:49 47.86116 2.91895 31775 ft 459 kts 159°
2026-05-05 16:49 47.83176 2.93755 32112 ft 458 kts 159°
2026-05-05 16:49 47.80243 2.95611 32448 ft 457 kts 159°
2026-05-05 16:49 47.77327 2.97454 32746 ft 457 kts 159°
2026-05-05 16:50 47.71451 3.01156 32818 ft 457 kts 160°
2026-05-05 16:50 47.65600 3.04834 32818 ft 455 kts 160°
2026-05-05 16:51 47.59775 3.08487 32826 ft 454 kts 160°
2026-05-05 16:51 47.53950 3.12130 32842 ft 454 kts 160°
2026-05-05 16:52 47.48124 3.15758 32843 ft 455 kts 160°
2026-05-05 16:52 47.42295 3.19380 32834 ft 454 kts 160°
2026-05-05 16:53 47.36482 3.22985 32849 ft 453 kts 160°
2026-05-05 16:53 47.30708 3.26557 32844 ft 453 kts 160°
2026-05-05 16:54 47.24857 3.30169 32844 ft 453 kts 160°
2026-05-05 16:54 47.19039 3.33752 32849 ft 453 kts 160°
2026-05-05 16:55 47.13225 3.37324 32852 ft 453 kts 160°
2026-05-05 16:55 47.07394 3.40898 32849 ft 454 kts 160°
2026-05-05 16:56 47.01598 3.44442 32853 ft 454 kts 160°
2026-05-05 16:56 46.95766 3.48000 32848 ft 454 kts 160°
2026-05-05 16:57 46.89879 3.51581 33067 ft 459 kts 159°
2026-05-05 16:57 46.83958 3.55178 32915 ft 466 kts 159°
2026-05-05 16:58 46.77964 3.58811 32860 ft 466 kts 159°
2026-05-05 16:58 46.72401 3.63502 32862 ft 470 kts 135°
2026-05-05 16:59 46.70386 3.67296 32865 ft 477 kts 122°
2026-05-05 16:59 46.69034 3.71716 32836 ft 482 kts 108°
2026-05-05 16:59 46.67546 3.81279 32857 ft 485 kts 105°
2026-05-05 17:00 46.65990 3.90825 32850 ft 484 kts 107°
2026-05-05 17:00 46.64334 4.00326 32848 ft 484 kts 107°
2026-05-05 17:01 46.63508 4.05070 32511 ft 485 kts 109°
2026-05-05 17:01 46.62683 4.09824 32635 ft 484 kts 108°
2026-05-05 17:01 46.61022 4.19351 32798 ft 488 kts 108°
2026-05-05 17:02 46.59345 4.28928 32844 ft 488 kts 109°
2026-05-05 17:02 46.57672 4.38446 32852 ft 486 kts 109°
2026-05-05 17:03 46.55991 4.47945 32859 ft 485 kts 109°
2026-05-05 17:03 46.54300 4.57442 32860 ft 486 kts 109°
2026-05-05 17:04 46.52600 4.66946 32862 ft 487 kts 109°
2026-05-05 17:04 46.50889 4.76456 32856 ft 487 kts 109°
2026-05-05 17:05 46.49182 4.85907 32868 ft 488 kts 109°
2026-05-05 17:05 46.47438 4.95508 32885 ft 489 kts 109°
2026-05-05 17:06 46.45698 5.05045 32880 ft 489 kts 109°
2026-05-05 17:06 46.43942 5.14585 32887 ft 490 kts 110°
2026-05-05 17:07 46.42175 5.24070 32894 ft 491 kts 110°
2026-05-05 17:07 46.40393 5.33614 32893 ft 491 kts 110°
2026-05-05 17:08 46.37862 5.42668 32895 ft 481 kts 125°
2026-05-05 17:08 46.34007 5.50470 32900 ft 473 kts 136°
2026-05-05 17:09 46.29681 5.57660 32895 ft 474 kts 136°
2026-05-05 17:09 46.25356 5.64868 32893 ft 475 kts 135°
2026-05-05 17:10 46.21044 5.72114 32884 ft 475 kts 135°
2026-05-05 17:10 46.16744 5.79354 32883 ft 476 kts 135°
2026-05-05 17:11 46.12424 5.86605 32892 ft 476 kts 135°
2026-05-05 17:11 46.08098 5.93848 32875 ft 477 kts 136°
2026-05-05 17:12 46.03760 6.01085 32895 ft 478 kts 136°
2026-05-05 17:12 45.99411 6.08325 32880 ft 479 kts 136°
2026-05-05 17:13 45.95051 6.15565 32889 ft 479 kts 136°
2026-05-05 17:13 45.90677 6.22807 32892 ft 481 kts 136°
2026-05-05 17:14 45.86290 6.30059 32883 ft 481 kts 136°
2026-05-05 17:14 45.81849 6.37249 32889 ft 479 kts 140°
2026-05-05 17:15 45.76793 6.43347 32903 ft 472 kts 150°
2026-05-05 17:15 45.71396 6.48733 32897 ft 474 kts 150°
2026-05-05 17:16 45.66007 6.54147 32895 ft 473 kts 150°
2026-05-05 17:16 45.60665 6.59553 32900 ft 475 kts 150°
2026-05-05 17:17 45.55274 6.65010 32894 ft 476 kts 150°
2026-05-05 17:17 45.49872 6.70463 32890 ft 475 kts 150°
2026-05-05 17:18 45.44467 6.75903 32894 ft 476 kts 150°
2026-05-05 17:18 45.39058 6.81335 32926 ft 477 kts 150°
2026-05-05 17:19 45.33627 6.86778 32906 ft 477 kts 150°
2026-05-05 17:19 45.28203 6.92201 32928 ft 478 kts 150°
2026-05-05 17:20 45.23111 6.98372 32972 ft 485 kts 140°
2026-05-05 17:20 45.18322 7.05142 32957 ft 486 kts 141°
2026-05-05 17:21 45.13498 7.11824 32955 ft 485 kts 141°
2026-05-05 17:22 45.06967 7.22917 32988 ft 496 kts 129°
2026-05-05 17:22 45.03075 7.30987 32980 ft 495 kts 130°
2026-05-05 17:23 44.99123 7.38963 32975 ft 496 kts 130°
2026-05-05 17:23 44.95634 7.47442 32972 ft 503 kts 122°
2026-05-05 17:24 44.92443 7.56235 32961 ft 504 kts 122°
2026-05-05 17:24 44.89238 7.65029 33139 ft 504 kts 125°
2026-05-05 17:25 44.86017 7.73742 32989 ft 504 kts 126°
2026-05-05 17:25 44.82750 7.82503 32958 ft 505 kts 126°
2026-05-05 17:26 44.79467 7.91272 32952 ft 508 kts 126°
2026-05-05 17:26 44.76143 8.00129 32945 ft 509 kts 126°
2026-05-05 17:27 44.72853 8.08879 32938 ft 509 kts 126°
2026-05-05 17:27 44.69530 8.17690 32929 ft 510 kts 126°
2026-05-05 17:28 44.66190 8.26511 32930 ft 511 kts 126°
2026-05-05 17:28 44.62845 8.35320 32937 ft 511 kts 126°
2026-05-05 17:29 44.59492 8.44119 32949 ft 512 kts 126°
2026-05-05 17:29 44.56129 8.52920 32943 ft 512 kts 127°
2026-05-05 17:30 44.53334 8.60218 32957 ft 511 kts 127°
2026-05-05 17:30 44.49956 8.69000 32946 ft 512 kts 127°
2026-05-05 17:31 44.46566 8.77787 32956 ft 513 kts 127°
2026-05-05 17:31 44.43164 8.86581 32961 ft 514 kts 127°
2026-05-05 17:32 44.39756 8.95366 32957 ft 514 kts 127°
2026-05-05 17:32 44.36343 9.04136 32954 ft 513 kts 127°
2026-05-05 17:33 44.32919 9.12904 32951 ft 514 kts 127°
2026-05-05 17:33 44.29480 9.21677 32942 ft 516 kts 127°
2026-05-05 17:34 44.26037 9.30444 32961 ft 515 kts 127°
2026-05-05 17:34 44.22587 9.39199 32959 ft 515 kts 127°
2026-05-05 17:35 44.19125 9.47954 32957 ft 516 kts 127°
2026-05-05 17:35 44.15649 9.56715 32957 ft 517 kts 126°
2026-05-05 17:36 44.12166 9.65471 32957 ft 517 kts 126°
2026-05-05 17:36 44.08672 9.74226 32959 ft 518 kts 126°
2026-05-05 17:37 44.05169 9.82975 32963 ft 518 kts 126°
2026-05-05 17:37 44.01658 9.91722 32958 ft 518 kts 126°
2026-05-05 17:38 43.98165 10.00397 32956 ft 518 kts 126°
2026-05-05 17:38 43.94624 10.09160 32963 ft 518 kts 126°
2026-05-05 17:39 43.91092 10.17875 32968 ft 518 kts 126°
2026-05-05 17:39 43.87578 10.26520 32991 ft 518 kts 126°
2026-05-05 17:40 43.84033 10.35215 32992 ft 518 kts 126°
2026-05-05 17:40 43.80482 10.43900 33013 ft 519 kts 126°
2026-05-05 17:41 43.76918 10.52594 33000 ft 519 kts 126°
2026-05-05 17:41 43.73294 10.61331 33001 ft 521 kts 126°
2026-05-05 17:42 43.69682 10.69931 32982 ft 521 kts 127°
2026-05-05 17:42 43.66042 10.78572 32988 ft 520 kts 126°
2026-05-05 17:43 43.62395 10.87220 32999 ft 521 kts 126°
2026-05-05 17:43 43.58745 10.95860 32990 ft 522 kts 126°
2026-05-05 17:44 43.55059 11.04560 32998 ft 522 kts 126°
2026-05-05 17:44 43.51390 11.13189 32997 ft 523 kts 126°
2026-05-05 17:45 43.47723 11.21789 32999 ft 523 kts 126°
2026-05-05 17:45 43.44036 11.30413 33008 ft 523 kts 126°
2026-05-05 17:46 43.40336 11.39036 32984 ft 522 kts 126°
2026-05-05 17:46 43.36636 11.47635 33002 ft 523 kts 126°
2026-05-05 17:47 43.32915 11.56260 33002 ft 525 kts 126°
2026-05-05 17:47 43.29187 11.64874 33009 ft 525 kts 126°
2026-05-05 17:48 43.25454 11.73477 33002 ft 524 kts 126°
2026-05-05 17:48 43.21709 11.82077 33012 ft 525 kts 126°
2026-05-05 17:49 43.17958 11.90668 33021 ft 525 kts 126°
2026-05-05 17:49 43.14198 11.99256 33019 ft 525 kts 126°
2026-05-05 17:50 43.10436 12.07822 33014 ft 525 kts 126°
2026-05-05 17:50 43.06671 12.16370 33027 ft 525 kts 126°
2026-05-05 17:51 43.02896 12.24913 33029 ft 525 kts 126°
2026-05-05 17:51 42.99115 12.33449 33018 ft 525 kts 126°
2026-05-05 17:52 42.95326 12.41975 33020 ft 525 kts 126°
2026-05-05 17:52 42.91558 12.50430 33016 ft 524 kts 126°
2026-05-05 17:53 42.87770 12.58909 33023 ft 524 kts 126°
2026-05-05 17:53 42.83967 12.67391 33027 ft 524 kts 126°
2026-05-05 17:54 42.80158 12.75866 33036 ft 525 kts 126°
2026-05-05 17:54 42.76340 12.84336 33033 ft 525 kts 126°
2026-05-05 17:55 42.72490 12.92853 33033 ft 524 kts 126°
2026-05-05 17:55 42.68701 13.01215 33057 ft 523 kts 126°
2026-05-05 17:56 42.64870 13.09635 33037 ft 525 kts 126°
2026-05-05 17:56 42.61029 13.18054 33057 ft 524 kts 126°
2026-05-05 17:57 42.57179 13.26477 33048 ft 525 kts 126°
2026-05-05 17:57 42.53319 13.34899 33033 ft 526 kts 126°
2026-05-05 17:58 42.49456 13.43302 33026 ft 524 kts 126°
2026-05-05 17:58 42.45586 13.51692 33015 ft 525 kts 126°
2026-05-05 17:59 42.41712 13.60069 33022 ft 526 kts 126°
2026-05-05 17:59 42.37827 13.68451 33014 ft 525 kts 126°
2026-05-05 18:00 42.33936 13.76816 33023 ft 526 kts 126°
2026-05-05 18:00 42.30029 13.85192 33014 ft 527 kts 126°
2026-05-05 18:01 42.26123 13.93548 33022 ft 527 kts 126°
2026-05-05 18:01 42.22202 14.01911 33019 ft 527 kts 126°
2026-05-05 18:02 42.18275 14.10266 33021 ft 528 kts 126°
2026-05-05 18:02 42.14336 14.18619 33017 ft 528 kts 126°
2026-05-05 18:03 42.10389 14.26964 33016 ft 528 kts 126°
2026-05-05 18:03 42.06440 14.35297 33010 ft 528 kts 126°
2026-05-05 18:04 42.02486 14.43623 33013 ft 527 kts 126°
2026-05-05 18:04 41.98561 14.51863 33011 ft 527 kts 126°
2026-05-05 18:05 41.94596 14.60162 33008 ft 528 kts 126°
2026-05-05 18:05 41.90613 14.68477 33014 ft 530 kts 126°
2026-05-05 18:06 41.86626 14.76777 33007 ft 529 kts 126°
2026-05-05 18:06 41.82635 14.85065 33003 ft 529 kts 126°
2026-05-05 18:07 41.78644 14.93328 33010 ft 528 kts 126°
2026-05-05 18:07 41.74646 15.01582 33020 ft 528 kts 126°
2026-05-05 18:08 41.70646 15.09822 33024 ft 528 kts 126°
2026-05-05 18:08 41.66639 15.18051 33026 ft 527 kts 126°
2026-05-05 18:09 41.62632 15.26258 33029 ft 527 kts 125°
2026-05-05 18:09 41.58617 15.34458 33041 ft 527 kts 125°
2026-05-05 18:10 41.54597 15.42648 33036 ft 527 kts 125°
2026-05-05 18:10 41.50571 15.50828 33055 ft 528 kts 125°
2026-05-05 18:11 41.46538 15.58999 33055 ft 527 kts 125°
2026-05-05 18:11 41.42497 15.67166 33050 ft 528 kts 125°
2026-05-05 18:12 41.38451 15.75322 33053 ft 528 kts 125°
2026-05-05 18:12 41.34396 15.83471 33047 ft 528 kts 125°
2026-05-05 18:13 41.31026 15.90231 33048 ft 527 kts 125°
2026-05-05 18:13 41.26968 15.98347 33052 ft 527 kts 125°
2026-05-05 18:14 41.22901 16.06461 33050 ft 528 kts 125°
2026-05-05 18:14 41.18827 16.14569 33049 ft 528 kts 125°
2026-05-05 18:15 41.14749 16.22661 33045 ft 527 kts 125°
2026-05-05 18:15 41.10671 16.30734 33038 ft 527 kts 125°
2026-05-05 18:16 41.06579 16.38811 33030 ft 528 kts 125°
2026-05-05 18:16 41.02480 16.46883 33022 ft 528 kts 125°
2026-05-05 18:17 40.98372 16.54952 33021 ft 528 kts 125°
2026-05-05 18:17 40.94262 16.63004 33021 ft 528 kts 125°
2026-05-05 18:18 40.90148 16.71041 33036 ft 528 kts 126°
2026-05-05 18:18 40.86029 16.79071 33074 ft 528 kts 126°
2026-05-05 18:19 40.81853 16.87059 33077 ft 527 kts 129°
2026-05-05 18:19 40.77040 16.94317 33079 ft 525 kts 135°
2026-05-05 18:20 40.72084 17.01320 33077 ft 525 kts 135°
2026-05-05 18:20 40.67118 17.08374 33080 ft 525 kts 135°
2026-05-05 18:21 40.62138 17.15499 33074 ft 526 kts 135°
2026-05-05 18:21 40.57219 17.22543 33078 ft 526 kts 135°
2026-05-05 18:22 40.52260 17.29625 33076 ft 527 kts 135°
2026-05-05 18:22 40.47294 17.36697 33078 ft 526 kts 135°
2026-05-05 18:23 40.42315 17.43768 33073 ft 527 kts 135°
2026-05-05 18:23 40.37341 17.50816 33074 ft 527 kts 135°
2026-05-05 18:24 40.32347 17.57874 33072 ft 528 kts 135°
2026-05-05 18:24 40.27340 17.64935 33070 ft 528 kts 135°
2026-05-05 18:25 40.22334 17.71979 33078 ft 528 kts 135°
2026-05-05 18:25 40.17326 17.79010 33074 ft 528 kts 135°
2026-05-05 18:26 40.12309 17.86037 33073 ft 529 kts 135°
2026-05-05 18:26 40.07322 17.93005 33076 ft 529 kts 135°
2026-05-05 18:27 40.02290 18.00020 33073 ft 529 kts 135°
2026-05-05 18:27 39.97246 18.07034 33077 ft 530 kts 135°
2026-05-05 18:28 39.89674 18.17536 33088 ft 530 kts 135°
2026-05-05 18:28 39.84622 18.24522 33078 ft 530 kts 135°
2026-05-05 18:29 39.79559 18.31506 33085 ft 530 kts 135°
2026-05-05 18:29 39.74501 18.38468 33085 ft 530 kts 135°
2026-05-05 18:30 39.69427 18.45438 33093 ft 531 kts 135°
2026-05-05 18:30 39.64352 18.52392 33095 ft 530 kts 135°
2026-05-05 18:31 39.59282 18.59323 33096 ft 530 kts 135°
2026-05-05 18:31 39.54208 18.66244 33081 ft 530 kts 135°
2026-05-05 18:32 39.49053 18.73065 33094 ft 529 kts 139°
2026-05-05 18:32 39.43561 18.79401 33100 ft 528 kts 140°
2026-05-05 18:33 39.38005 18.85620 33098 ft 528 kts 140°
2026-05-05 18:33 39.32472 18.91871 33100 ft 527 kts 140°
2026-05-05 18:34 39.26975 18.98138 33101 ft 527 kts 140°
2026-05-05 18:34 39.21487 19.04402 33103 ft 526 kts 140°
2026-05-05 18:35 39.16027 19.10617 33106 ft 526 kts 140°
2026-05-05 18:35 39.10533 19.16852 33105 ft 526 kts 140°
2026-05-05 18:36 39.05043 19.23068 33109 ft 526 kts 140°
2026-05-05 18:36 38.99545 19.29279 33109 ft 526 kts 140°
2026-05-05 18:37 38.94044 19.35479 33112 ft 526 kts 140°
2026-05-05 18:37 38.88551 19.41659 33114 ft 525 kts 140°
2026-05-05 18:38 38.83048 19.47836 33116 ft 525 kts 140°
2026-05-05 18:38 38.77546 19.53998 33116 ft 525 kts 140°
2026-05-05 18:39 38.72042 19.60150 33120 ft 525 kts 140°
2026-05-05 18:39 38.66538 19.66288 33113 ft 524 kts 140°
2026-05-05 18:40 38.61035 19.72413 33120 ft 524 kts 140°
2026-05-05 18:40 38.55533 19.78524 33122 ft 523 kts 140°
2026-05-05 18:41 38.50035 19.84617 33118 ft 523 kts 140°
2026-05-05 18:41 38.44538 19.90697 33122 ft 523 kts 140°
2026-05-05 18:42 38.39039 19.96765 33121 ft 523 kts 140°
2026-05-05 18:42 38.33574 20.02784 33126 ft 522 kts 140°
2026-05-05 18:43 38.28074 20.08829 33127 ft 522 kts 140°
2026-05-05 18:43 38.22577 20.14858 33129 ft 522 kts 140°
2026-05-05 18:44 38.17068 20.20888 33130 ft 522 kts 140°
2026-05-05 18:44 38.11567 20.26896 33128 ft 522 kts 140°
2026-05-05 18:45 38.06056 20.32902 33127 ft 521 kts 140°
2026-05-05 18:45 38.00549 20.38893 33132 ft 521 kts 140°
2026-05-05 18:46 37.95045 20.44868 33132 ft 521 kts 140°
2026-05-05 18:46 37.89527 20.50845 33130 ft 521 kts 140°
2026-05-05 18:47 37.84011 20.56808 33118 ft 521 kts 140°
2026-05-05 18:47 37.78488 20.62767 33114 ft 521 kts 140°
2026-05-05 18:48 37.72967 20.68711 33112 ft 522 kts 140°
2026-05-05 18:48 37.67440 20.74650 33106 ft 522 kts 140°
2026-05-05 18:49 37.61910 20.80580 33108 ft 521 kts 140°
2026-05-05 18:49 37.56376 20.86502 33113 ft 522 kts 140°
2026-05-05 18:50 37.50834 20.92421 33116 ft 522 kts 140°
2026-05-05 18:50 37.45292 20.98328 33124 ft 522 kts 140°
2026-05-05 18:51 37.39739 21.04235 33126 ft 522 kts 140°
2026-05-05 18:51 37.34229 21.10084 33132 ft 522 kts 140°
2026-05-05 18:52 37.28669 21.15974 33126 ft 522 kts 140°
2026-05-05 18:52 37.23106 21.21857 33129 ft 522 kts 140°
2026-05-05 18:53 37.17548 21.27722 33130 ft 522 kts 140°
2026-05-05 18:53 37.11981 21.33584 33130 ft 523 kts 140°
2026-05-05 18:54 37.06408 21.39442 33123 ft 523 kts 140°
2026-05-05 18:54 37.00832 21.45290 33138 ft 523 kts 140°
2026-05-05 18:55 36.95243 21.51142 33134 ft 524 kts 140°
2026-05-05 18:55 36.89638 21.56998 33130 ft 525 kts 140°
2026-05-05 18:56 36.84036 21.62839 33123 ft 525 kts 140°
2026-05-05 18:56 36.78423 21.68680 33128 ft 525 kts 140°
2026-05-05 18:57 36.72842 21.74476 33129 ft 525 kts 140°
2026-05-05 18:57 36.67225 21.80300 33123 ft 526 kts 140°
2026-05-05 18:58 36.61595 21.86123 33124 ft 526 kts 140°
2026-05-05 18:58 36.55955 21.91947 33123 ft 527 kts 140°
2026-05-05 18:59 36.51257 21.96789 33119 ft 527 kts 140°
2026-05-05 18:59 36.45605 22.02604 33116 ft 527 kts 140°
2026-05-05 19:00 36.39949 22.08412 33107 ft 527 kts 140°
2026-05-05 19:00 36.34290 22.14211 33116 ft 527 kts 140°
2026-05-05 19:01 36.28635 22.19995 33114 ft 527 kts 140°
2026-05-05 19:01 36.22974 22.25774 33112 ft 527 kts 141°
2026-05-05 19:02 36.17321 22.31533 33115 ft 526 kts 141°
2026-05-05 19:02 36.11659 22.37291 33117 ft 526 kts 141°
2026-05-05 19:03 36.06002 22.43033 33117 ft 526 kts 141°
2026-05-05 19:03 36.00355 22.48752 33116 ft 525 kts 141°
2026-05-05 19:04 35.94734 22.54435 33118 ft 525 kts 141°
2026-05-05 19:04 35.89076 22.60145 33119 ft 526 kts 141°
2026-05-05 19:05 35.83410 22.65852 33123 ft 526 kts 141°
2026-05-05 19:05 35.77746 22.71546 33127 ft 526 kts 141°